Regional Weather Roundup
Issued by NWS Green Bay, WI

Home | Current Version | Previous Version | Text Only | Print | Product List | Glossary On
Versions: 1 2 3 4 5 6 7 8 9 10 11 12 13 14 15 16 17 18 19 20 21 22 23 24 25 26 27 28 29 30 31 32 33 34 35 36 37 38 39 40 41 42 43 44 45 46 47 48 49 50
295
ASUS43 KGRB 190500
RWRGRB

NORTH-CENTRAL AND NORTHEAST WISCONSIN REGIONAL WEATHER ROUNDUP
NATIONAL WEATHER SERVICE GREEN BAY WI
1100 PM CST SAT NOV 18 2017

WIZ005-009-010>012-018-019-190600-
NORTH CENTRAL WISCONSIN

CITY           SKY/WX    TMP DP  RH WIND       PRES   REMARKS
IRONWOOD       NOT AVBL
MANITOWISH WTR NOT AVBL
ARBOR VITAE    NOT AVBL
EAGLE RIVER    FLURRIES  24  18  80 NW14G20   29.78S
LAND O LAKES   NOT AVBL
RHINELANDER    CLOUDY   N/A N/A N/A NW10G20   29.81R
PHILLIPS       CLOUDY    22  13  71 NW8       29.86R
ANTIGO         NOT AVBL
TOMAHAWK       NOT AVBL
MERRILL        CLOUDY    25  17  72 NW10      29.84R
$$

WIZ013-073-190600-
NORTHEAST WISCONSIN

CITY           SKY/WX    TMP DP  RH WIND       PRES   REMARKS
IRON MOUNTAIN  CLOUDY    28  20  71 NW20G26   29.75R
MARINETTE      CLOUDY    32  25  75 N14G20    29.77R
$$

WIZ017-030-035>037-045-190600-
CENTRAL WISCONSIN

CITY           SKY/WX    TMP DP  RH WIND       PRES   REMARKS
MEDFORD        NOT AVBL
WAUSAU         CLOUDY    26  17  68 NW20G28   29.83R
MOSINEE        NOT AVBL
MARSHFIELD     CLOUDY    26  16  65 NW14G22   29.85R
WISC RAPIDS    CLOUDY    29  18  63 N15G21    29.87R
STEVENS POINT  NOT AVBL
WAUPACA        NOT AVBL
SHAWANO        CLOUDY    33  25  72 NW12G20   29.80R
CLINTONVILLE   NOT AVBL
WAUTOMA        CLOUDY    31  21  66 NW17G23   29.85R
$$

WIZ038-039-048-051-190600-
FOX VALLEY

CITY           SKY/WX    TMP DP  RH WIND       PRES   REMARKS
NWS GREEN BAY  CLOUDY    33  27  78 NW16      29.79R
APPLETON       CLOUDY    32  21  64 NW14G23   29.79R
OSHKOSH        CLOUDY    33  23  66 NW20G25   29.80R
FOND DU LAC    CLOUDY    34  22  61 NW18G28   29.81R
$$

WIZ022-050-052-190600-
EAST CENTRAL WISCONSIN

CITY           SKY/WX    TMP DP  RH WIND       PRES   REMARKS
EPHRAIM        NOT AVBL
WASHINGTON ISL NOT AVBL
STURGEON BAY   CLOUDY    32  25  75 NW18G26   29.75R
MANITOWOC      CLOUDY    33  25  72 NW13      29.78R
SHEBOYGAN      CLOUDY    34  27  75 NW15G22   29.78R
$$

LMZ563-521-522-541>543-190600-
LAKESHORE

STATION/POSITION TIME  TEMP    WIND        PRES    VSBY  WAVE
                       AIR SEA DIR/SP/G                  HT/PER
                 (UTC) (F)     (DEG/KT/KT) (MB)    (MI)  (FT/S)
SHEBOYGAN LKSHOR 0400   36     340/ 20/ 23 1008.2R
NORTHPORT PIER   0440   35     320/ 26/ 33 1006.8R
N MID LAKE BUOY  0350   34 48  330/ 21/ 27 1006.0R         6/ 5
SISTER BAY LKSHO 0419   35     350/ 29/ 34   N/A
$$




USA.gov is the U.S. government's official web portal to all federal, state and local government web resources and services.